GAOFEN-11 01

Last updated on Mon Nov 03 2025 00:02:35 GMT+0000 (Coordinated Universal Time)

1 43585U 18063A 25306.49306156 .00015233 00000+0 29640-3 0 9990 2 43585 97.1627 9.7976 0007312 90.1796 270.0293 15.47641486405190
UTC large
Height (km)
Speed (km/s)
/
Latitude / Longitude
Inclination (degrees)
Orbital Period (minutes)
Azimuth
Elevation
Range (km)
Doppler Factor

Next 0 passes for location: London (51.5072 / 0.1276)

Sorry there are no passes over London.